This is the latest recevied weather packets stored in our database for station/object KG5MMT-12. If no packets are shown the sender has not sent any weather packets the latest 10 day(s).
| Time | Temp. | Humidity | Pressure | Rain* | Wind** | Luminosity | Snow |
|---|---|---|---|---|---|---|---|
| 1788383345 | 27.22° C | 25% | 0 hPa | 0 mm | - | - | - |
| 1788383045 | 27.22° C | 24% | 0 hPa | 0 mm | - | - | - |
| 1788382745 | 26.67° C | 23% | 0 hPa | 0 mm | - | - | - |
| 1788382445 | 26.67° C | 22% | 0 hPa | 0 mm | - | - | - |
| 1788382145 | 26.67° C | 26% | 0 hPa | 0 mm | - | - | - |
| 1788381845 | 26.11° C | 24% | 0 hPa | 0 mm | - | - | - |
| 1788381545 | 26.11° C | 27% | 0 hPa | 0 mm | - | - | - |
| 1788381246 | 26.11° C | 29% | 0 hPa | 0 mm | - | - | - |
| 1788380945 | 25.56° C | 27% | 0 hPa | 0 mm | - | - | - |
| 1788380645 | 26.11° C | 27% | 0 hPa | 0 mm | - | - | - |
| 1788380345 | 26.67° C | 25% | 0 hPa | 0 mm | - | - | - |
| 1788380045 | 26.67° C | 24% | 0 hPa | 0 mm | - | - | - |
| 1788379745 | 26.67° C | 27% | 0 hPa | 0 mm | - | - | - |
| 1788379445 | 26.11° C | 26% | 0 hPa | 0 mm | - | - | - |
| 1788379145 | 26.11° C | 27% | 0 hPa | 0 mm | - | - | - |
| 1788378845 | 25.56° C | 29% | 0 hPa | 0 mm | - | - | - |
| 1788378545 | 25.56° C | 28% | 0 hPa | 0 mm | - | - | - |
| 1788378245 | 25.56° C | 28% | 0 hPa | 0 mm | - | - | - |
| 1788377945 | 25.56° C | 31% | 0 hPa | 0 mm | - | - | - |
| 1788377645 | 25.56° C | 29% | 0 hPa | 0 mm | - | - | - |
| 1788377345 | 26.11° C | 28% | 0 hPa | 0 mm | - | - | - |
| 1788377045 | 25.56° C | 31% | 0 hPa | 0 mm | - | - | - |
| 1788376745 | 25.56° C | 28% | 0 hPa | 0 mm | - | - | - |
| 1788376445 | 25° C | 33% | 0 hPa | 0 mm | - | - | - |
| 1788376145 | 25.56° C | 30% | 0 hPa | 0 mm | - | - | - |
* Rain latest hour (hover to see other rain measurements)
** Current wind speed in m/s (hover to see current wind gust speed)